Regional Weather Roundup
Issued by NWS

Home | Current Version | Previous Version | Text Only | Print | Product List | Glossary Off
Versions: 1 2 3 4 5 6 7 8 9 10 11 12 13 14 15 16 17 18 19 20 21 22 23 24 25 26 27 28 29 30 31 32 33 34 35 36 37 38 39 40 41 42 43 44 45 46 47 48 49 50

000
ASUS43 KTOP 010959
RWRKS

WEATHER ROUNDUP FOR KANSAS
NATIONAL WEATHER SERVICE GOODLAND KS
500 AM CDT WED JUL 01 2015

NOTE:  "FAIR" INDICATES FEW OR NO CLOUDS BELOW 12,000 FEET WITH NO
SIGNIFICANT WEATHER AND/OR OBSTRUCTIONS TO VISIBILITY.

KSZ001>006-013>018-027>032-041>047-011100-
NORTHWEST KANSAS

CITY           SKY/WX    TMP DP  RH WIND       PRES   REMARKS
GOODLAND       MOCLDY    69  56  62 W8        29.92R
HAYS           CLOUDY    79  55  44 SW14      29.80F
HILL CITY      CLOUDY    79  53  40 NE7       29.80S
RUSSELL        MOCLDY    80  58  46 SW18      29.77F
$$

KSZ061>065-074>080-084>089-011100-
SOUTHWEST KANSAS

CITY           SKY/WX    TMP DP  RH WIND       PRES   REMARKS
DODGE CITY     MOCLDY    74  54  49 SW15G23   29.90F
ELKHART          N/A     72  50  46 SW14        N/A
GARDEN CITY    CLOUDY    73  54  51 W9        29.92R
GREAT BEND     PTCLDY    75  59  57 SW16      29.83F
LIBERAL        PTCLDY    70  54  56 S12       29.97S
$$

KSZ066>073-081>083-090>101-011100-
SOUTHEAST KANSAS

CITY           SKY/WX    TMP DP  RH WIND       PRES   REMARKS
CHANUTE        CLEAR     77  71  82 SW12      29.83F
COFFEYVILLE    PTCLDY    77  73  87 S9        29.86R
HUTCHINSON     CLEAR     79  61  53 SW12      29.83F
MEDICINE LODGE   N/A     72  63  73 S5        29.87F
NEWTON         PTCLDY    75  59  57 SW12      29.86S
PARSONS        PTCLDY    77  73  87 S7        29.86S
WICHITA INTL   MOCLDY    75  63  66 S9        29.84F
WICHITA JABRA  CLEAR     78  63  59 SW14      29.84F
WINFIELD       CLEAR     77  67  71 SW17      29.87R
$$

KSZ007>012-019>026-033>040-048>060-102>105-011100-
NORTHEAST KANSAS

CITY           SKY/WX    TMP DP  RH WIND       PRES   REMARKS
CONCORDIA      CLOUDY    73  67  81 E6        29.81S
EMPORIA        CLOUDY    79  65  62 SW10      29.81S
LAWRENCE       CLOUDY    70  67  90 E9        29.89R
MANHATTAN      CLOUDY    77  67  71 E9        29.82F
OLATHE IND     CLOUDY    68  66  93 E8        29.92R
OLATHE EXE     LGT RAIN  67  66  97 E7        29.91R
SALINA         CLOUDY    82  60  47 SW14      29.77F
TOPEKA BILLARD LGT RAIN  72  68  87 E13       29.87S
TOPEKA FORBES  CLOUDY    73  67  81 NE10G21   29.87R
$$



USA.gov is the U.S. government's official web portal to all federal, state and local government web resources and services.